Regional Weather Roundup
Issued by NWS Burlington, VT

Current Version | Previous Version | Text Only | Print | Product List | Glossary On
Versions: 1 2 3 4 5 6 7 8 9 10 11 12 13 14 15 16 17 18 19 20 21 22 23 24 25 26 27 28 29 30 31 32 33 34 35 36 37 38 39 40 41 42 43 44 45 46 47 48 49 50
000
ASUS41 KBTV 260810
RWRBTV
VERMONT REGIONAL WEATHER ROUNDUP
NATIONAL WEATHER SERVICE BURLINGTON VT
400 AM EDT SUN APR 26 2015

NOTE: "FAIR" INDICATES FEW OR NO CLOUDS BELOW 12,000 FEET WITH NO
SIGNIFICANT WEATHER AND/OR OBSTRUCTIONS TO VISIBILITY.

* THESE REPORTS ARE NOT UNDER NWS QUALITY CONTROL AND/OR DO NOT
  REPORT WEATHER SUCH AS PRECIPITATION AND FOG.

VTZ001>019-260900-
_____VERMONT_____


CITY           SKY/WX    TMP DP  RH WIND       PRES   REMARKS
BURLINGTON     CLOUDY    44  31  60 NW7       29.70F
MONTPELIER     CLOUDY    36  30  79 E3        29.71F
MORRISVILLE    CLOUDY    37  33  85 CALM      29.70S
ST. JOHNSBURY*   N/A     37  33  85 MISG      29.66F
LYNDONVILLE*   CLOUDY    34  32  90 CALM      29.68F
MIDDLEBURY*    CLOUDY    40  33  74 CALM      29.69F
RUTLAND*       CLOUDY    37  30  75 CALM      29.69S
SPRINGFIELD    CLOUDY    37  32  82 CALM      29.68F
HIGHGATE*      CLOUDY    39  37  93 CALM      29.71F
NEWPORT*       CLOUDY    35  33  94 CALM      29.68F
BENNINGTON     CLOUDY    41  30  65 CALM      29.68S
SUTTON*          N/A     34 N/A N/A MISG        N/A

_____LAKE CHAMPLAIN_____


CITY           SKY/WX    TMP DP  RH WIND       PRES   REMARKS

$$

NYZ007-026>031-035-052-083-260900-
_____NORTHERN NEW YORK_____


CITY           SKY/WX    TMP DP  RH WIND       PRES   REMARKS
PLATTSBURGH    CLOUDY    44  32  62 N8        29.71F
SARANAC LAKE   MOSUNNY   30  27  88 CALM      29.68F
MASSENA        CLOUDY    39  30  70 NW5       29.75F
OGDENSBURG*    SUNNY     36  30  80 N5        29.76S
POTSDAM*       MOSUNNY   34  32  93 CALM      29.74F
WATERTOWN      SUNNY     30  27  88 CALM      29.76S
FT DRUM        PTSUNNY   36  32  84 NW2       29.74S
ALBANY         CLOUDY    42  29  59 W5        29.71F
GLENS FALLS    CLOUDY    45  30  55 N6        29.69F

$$
NHZ002-005-011-260900-
_____NEW HAMPSHIRE_____


CITY           SKY/WX    TMP DP  RH WIND       PRES   REMARKS
LEBANON        CLOUDY    39  32  76 CALM      29.68F
KEENE          CLOUDY    37  32  81 CALM      29.68S
MT WASHINGTON  FOG       19  19 100 N32         N/A  VSB 0   WCI   0
PLYMOUTH       CLOUDY    38  36  92 CALM      29.67F
WHITEFIELD     CLOUDY    35  33  92 CALM      29.66F

$$

_____REGIONAL QUEBEC LOCATIONS_____


CITY           SKY/WX    TMP DP  RH WIND       PRES   REMARKS
MONTREAL       PTSUNNY   41  32  70 N7        29.72F
QUEBEC CITY    CLOUDY    36  36 100 CALM      29.65F
SHERBROOKE     CLOUDY    37 N/A N/A VRB2      29.67S

_____REGIONAL ONTARIO LOCATIONS_____


CITY           SKY/WX    TMP DP  RH WIND       PRES   REMARKS
OTTAWA         MOSUNNY   36  30  80 NW9       29.76F

______KEY______
VSB  - VISIBILITY IN MILES
WCI  - WIND CHILL INDEX
HX   - HEAT INDEX
$$
NNNN


USA.gov is the U.S. government's official web portal to all federal, state and local government web resources and services.